Details From SVMI - SVMI
To TNCM - St Maarten - Princess Juliana Intl
Flight Number -
Tags CARACAS MAARTEN
Created
Modified
Stats Distance 531 nm / 983 km
Max Altitude 0 ft / 0 m
Waypoints 5
Social Downloads 1
Likes 0
Share VATSIM

Download

Looking for another format? Having issues loading an existing format? Contact us
Advertisement - Login to hide

Notes

None

Route

SVMI MIQ SILVA DANDE TNCM

ID Type Via Altitude Latitude Longitude Leg Dist Tot Dist Heading (true) Name
O SVMI APT - 0 ft / 0 m 10.60312˚ -66.99059˚ - 0 nm - Caracas Simon Bolivar Intl
MIQ NDB - 0 ft / 0 m 10.60811˚ -66.98581˚ 0 nm 0 nm 43° / 43° MAIQUETIA NDB
SILVA FIX - 0 ft / 0 m 14.45556˚ -66.70000˚ 231 nm 232 nm 4° / 4° -
DANDE FIX - 0 ft / 0 m 17.50419˚ -63.66467˚ 253 nm 485 nm 43° / 44° -
O TNCM APT - 0 ft / 0 m 18.04095˚ -63.10890˚ 45 nm 530 nm 45° / 45° St Maarten - Princess Juliana Intl

Altitude Profile

Advertisement - Login to hide

Weather


0- 5 10 15 20 25 30 35+ Temperature / ° C

Clouds and Precipitation
Forecast for 2018-05-26 06:00 UTC. Updated 5 hours ago

Ground ~20,000 ft ~40,000 ft Winds

SVMI

Details ICAO SVMI (CCS)
Name Caracas Simon Bolivar Intl
Region Venezuela
Timezone America/Caracas (UTC-4.0)
Stats Elevation 235 ft / 72 m (AMSL)
Location 10.603119° -66.990585°
Runways 2
Magnetic Variation 12.329° W

METAR

SVMI 261000Z 09004KT 9999 SCT016 25/22 Q1010

Decode

TAF

Not found

Departure Runways

ID Width Length Bearing (true) Bearing (mag) Surface Threshold Offset Overrun Length
09 145 ft / 44 m 9,825 ft / 2,995 m 75.92° 88.25° Asphalt 0 ft / 0 m 0 ft / 0 m
10 148 ft / 45 m 11,472 ft / 3,497 m 88.14° 100.47° Asphalt 0 ft / 0 m 200 ft / 61 m
27 145 ft / 44 m 9,825 ft / 2,995 m 255.92° 268.25° Asphalt 0 ft / 0 m 0 ft / 0 m
28 148 ft / 45 m 11,472 ft / 3,497 m 268.15° 280.48° Asphalt 0 ft / 0 m 200 ft / 61 m

TNCM

Details ICAO TNCM (SXM)
Name St Maarten - Princess Juliana Intl
Region Caribbean Netherlands, Aruba, Curaçao, Sint Maarten
Timezone Unknown (UTC+0.0)
Stats Elevation 12 ft / 4 m (AMSL)
Location 18.040889° -63.108974°
Runways 1
Magnetic Variation 14.337° W

METAR

TNCM 261000Z 10009KT 060V140 9999 FEW018 26/21 Q1016 A3002 NOSIG

Decode

TAF

TAF TNCM 260520Z 2606/2706 08010KT P6SM FEW018 FM261400 11014KT P6SM SCT022

Decode

Destination Runways

ID Width Length Bearing (true) Bearing (mag) Surface Threshold Offset Overrun Length
10 148 ft / 45 m 7,464 ft / 2,275 m 81.43° 95.77° Asphalt 0 ft / 0 m 151 ft / 46 m
28 148 ft / 45 m 7,464 ft / 2,275 m 261.44° 275.78° Asphalt 397 ft / 121 m 0 ft / 0 m

Popular Alternatives